| time (UTC) | temp F | wind direction | speed MPH | gust MPH | rain 1hr in | rain 24hr in | rain mn in | humidity % | barometer mb |
| 20260509115001 | 60 | 0.0 | 0.0 | 0.00 | 0.00 | 0.00 | 56 | 1019.6 | |
| 20260509114001 | 60 | 0.0 | 0.0 | 0.00 | 0.00 | 0.00 | 58 | 1019.7 | |
| 20260509113001 | 60 | 0.0 | 0.0 | 0.00 | 0.00 | 0.00 | 57 | 1019.6 | |
| 20260509112001 | 60 | 0.0 | 0.0 | 0.00 | 0.00 | 0.00 | 57 | 1019.5 | |
| 20260509111001 | 59 | 0.0 | 0.0 | 0.00 | 0.00 | 0.00 | 56 | 1019.6 | |
| 20260509110001 | 59 | 0.0 | 0.0 | 0.00 | 0.00 | 0.00 | 58 | 1019.7 | |
| 20260509104001 | 60 | 0.0 | 0.0 | 0.00 | 0.00 | 0.00 | 57 | 1019.7 | |
| 20260509103001 | 60 | 0.0 | 0.0 | 0.00 | 0.00 | 0.00 | 56 | 1019.6 | |
| 20260509102001 | 61 | 0.0 | 0.0 | 0.00 | 0.00 | 0.00 | 55 | 1019.8 | |
| 20260509101001 | 60 | 0.0 | 0.0 | 0.00 | 0.00 | 0.00 | 58 | 1019.8 | |
| 20260509100001 | 60 | 0.0 | 0.0 | 0.00 | 0.00 | 0.00 | 59 | 1019.8 | |
| 20260509095000 | 58 | 0.0 | 0.0 | 0.00 | 0.00 | 0.00 | 61 | 1019.7 | |
| 20260509094001 | 58 | 0.0 | 0.0 | 0.00 | 0.00 | 0.00 | 60 | 1019.7 | |
| 20260509093000 | 58 | 0.0 | 0.0 | 0.00 | 0.00 | 0.00 | 62 | 1019.7 | |
| 20260509092000 | 58 | 0.0 | 0.0 | 0.00 | 0.00 | 0.00 | 63 | 1019.8 | |
| 20260509091000 | 57 | 0.0 | 0.0 | 0.00 | 0.00 | 0.00 | 65 | 1019.7 | |
| 20260509085000 | 57 | 0.0 | 0.0 | 0.00 | 0.00 | 0.00 | 66 | 1019.6 | |
| 20260509084000 | 57 | 0.0 | 0.0 | 0.00 | 0.00 | 0.00 | 66 | 1019.6 | |
| 20260509082000 | 56 | 0.0 | 0.0 | 0.00 | 0.00 | 0.00 | 70 | 1019.5 | |
| 20260509081000 | 56 | 0.0 | 0.0 | 0.00 | 0.00 | 0.00 | 72 | 1019.5 | |
| 20260509080000 | 57 | 0.0 | 0.0 | 0.00 | 0.00 | 0.00 | 71 | 1019.4 | |
| 20260509075000 | 57 | 0.0 | 0.0 | 0.00 | 0.00 | 0.00 | 68 | 1019.5 | |
| 20260509074000 | 57 | 0.0 | 0.0 | 0.00 | 0.00 | 0.00 | 65 | 1019.4 | |
| 20260509072000 | 57 | 0.0 | 0.0 | 0.00 | 0.00 | 0.00 | 63 | 1019.4 | |
| 20260509071001 | 56 | 0.0 | 0.0 | 0.00 | 0.00 | 0.00 | 68 | 1019.3 | |
| 20260509070001 | 55 | 0.0 | 0.0 | 0.00 | 0.00 | 0.00 | 69 | 1019.4 | |
| 20260509065001 | 55 | 0.0 | 0.0 | 0.00 | 0.00 | 0.00 | 74 | 1019.3 | |
| 20260509064001 | 56 | 0.0 | 0.0 | 0.00 | 0.00 | 0.00 | 72 | 1019.3 | |
| 20260509063001 | 56 | 0.0 | 0.0 | 0.00 | 0.00 | 0.00 | 72 | 1019.4 | |
| 20260509062001 | 56 | 0.0 | 0.0 | 0.00 | 0.00 | 0.00 | 71 | 1019.2 | |
| 20260509061001 | 55 | 0.0 | 0.0 | 0.00 | 0.00 | 0.00 | 73 | 1019.2 | |
| 20260509060001 | 57 | 0.0 | 0.0 | 0.00 | 0.00 | 0.00 | 72 | 1019.2 | |
| 20260509055001 | 54 | 0.0 | 0.0 | 0.00 | 0.00 | 0.00 | 79 | 1019.2 | |
| 20260509054001 | 52 | 0.0 | 0.0 | 0.00 | 0.00 | 0.00 | 83 | 1019.2 | |
| 20260509053001 | 52 | 0.0 | 0.0 | 0.00 | 0.00 | 0.00 | 84 | 1019.2 | |
| 20260509052001 | 51 | 0.0 | 0.0 | 0.00 | 0.00 | 0.00 | 85 | 1019.2 | |
| 20260509051001 | 51 | 0.0 | 0.0 | 0.00 | 0.00 | 0.00 | 85 | 1019.3 | |
| 20260509050001 | 51 | 0.0 | 0.0 | 0.00 | 0.00 | 0.00 | 85 | 1019.3 | |
| 20260509045001 | 50 | 0.0 | 0.0 | 0.00 | 0.00 | 0.00 | 85 | 1019.2 | |
| 20260509044001 | 50 | 0.0 | 0.0 | 0.00 | 0.00 | 0.00 | 86 | 1019.1 | |
| 20260509043001 | 50 | 0.0 | 0.0 | 0.00 | 0.00 | 0.00 | 87 | 1019.0 | |
| 20260509042001 | 50 | 0.0 | 0.0 | 0.00 | 0.00 | 0.00 | 88 | 1019.1 | |
| 20260509041000 | 49 | 0.0 | 0.0 | 0.00 | 0.00 | 0.00 | 88 | 1019.1 | |
| 20260509040000 | 49 | 0.0 | 0.0 | 0.00 | 0.00 | 0.00 | 89 | 1019.0 | |
| 20260509035000 | 49 | 0.0 | 0.0 | 0.00 | 0.00 | 0.00 | 90 | 1019.0 | |
| 20260509034000 | 49 | 0.0 | 0.0 | 0.00 | 0.00 | 0.00 | 92 | 1019.0 | |
| 20260509033000 | 49 | 0.0 | 0.0 | 0.00 | 0.00 | 0.00 | 92 | 1019.0 | |
| 20260509032000 | 49 | 0.0 | 0.0 | 0.00 | 0.00 | 0.00 | 90 | 1018.9 | |
| 20260509031000 | 49 | 0.0 | 0.0 | 0.00 | 0.00 | 0.00 | 90 | 11.0 | |
| 20260509030000 | 49 | 0.0 | 0.0 | 0.00 | 0.00 | 0.00 | 90 | 1019.0 | |
| 20260509025000 | 49 | 0.0 | 0.0 | 0.00 | 0.00 | 0.00 | 90 | 1018.9 | |
| 20260509024000 | 49 | 0.0 | 0.0 | 0.00 | 0.00 | 0.00 | 90 | 1018.9 | |
| 20260509023000 | 49 | 0.0 | 0.0 | 0.00 | 0.00 | 0.00 | 90 | 1018.9 | |
| 20260509022000 | 49 | 0.0 | 0.0 | 0.00 | 0.00 | 0.00 | 90 | 1019.0 | |
| 20260509021000 | 49 | 0.0 | 0.0 | 0.00 | 0.00 | 0.00 | 89 | 1018.9 | |
| 20260509020001 | 50 | 0.0 | 0.0 | 0.00 | 0.00 | 0.00 | 90 | 1018.8 | |
| 20260509015001 | 50 | 0.0 | 0.0 | 0.00 | 0.00 | 0.00 | 89 | 1018.9 | |
| 20260509014001 | 49 | 0.0 | 0.0 | 0.00 | 0.00 | 0.00 | 89 | 1018.9 | |
| 20260509013001 | 50 | 0.0 | 0.0 | 0.00 | 0.00 | 0.00 | 90 | 1019.0 | |
| 20260509012001 | 50 | 0.0 | 0.0 | 0.00 | 0.00 | 0.00 | 90 | 1019.0 | |
| 20260509011001 | 50 | 0.0 | 0.0 | 0.00 | 0.00 | 0.00 | 89 | 1019.0 | |
| 20260509010001 | 50 | 0.0 | 0.0 | 0.00 | 0.00 | 0.00 | 90 | 1019.1 | |
| 20260509005001 | 50 | 0.0 | 0.0 | 0.00 | 0.00 | 0.00 | 90 | 1019.0 | |
| 20260509004001 | 50 | 0.0 | 0.0 | 0.00 | 0.00 | 0.00 | 90 | 1019.1 | |
| 20260509003001 | 50 | 0.0 | 0.0 | 0.00 | 0.00 | 0.00 | 90 | 1019.2 | |
| 20260509002001 | 50 | 0.0 | 0.0 | 0.00 | 0.00 | 0.00 | 90 | 1019.1 | |
| 20260509001000 | 50 | 0.0 | 0.0 | 0.00 | 0.00 | 0.00 | 89 | 1019.1 | |
| 20260508235000 | 50 | 0.0 | 0.0 | 0.00 | 0.00 | 0.00 | 87 | 1019.3 | |
| 20260508234000 | 50 | 0.0 | 0.0 | 0.00 | 0.00 | 0.00 | 87 | 1019.3 | |
| 20260508233000 | 50 | 0.0 | 0.0 | 0.00 | 0.00 | 0.00 | 86 | 1019.3 | |
| 20260508232000 | 50 | 0.0 | 0.0 | 0.00 | 0.00 | 0.00 | 86 | 1019.4 | |
| 20260508231000 | 50 | 0.0 | 0.0 | 0.00 | 0.00 | 0.00 | 87 | 1019.3 | |
| 20260508230000 | 50 | 0.0 | 0.0 | 0.00 | 0.00 | 0.00 | 87 | 1019.4 | |
| 20260508225000 | 50 | 0.0 | 0.0 | 0.00 | 0.00 | 0.00 | 87 | 1019.5 | |
| 20260508224000 | 50 | 0.0 | 0.0 | 0.00 | 0.00 | 0.00 | 86 | 1019.5 | |
| 20260508223000 | 51 | 0.0 | 0.0 | 0.00 | 0.00 | 0.00 | 86 | 1019.4 | |
| 20260508222000 | 51 | 0.0 | 0.0 | 0.00 | 0.00 | 0.00 | 86 | 1019.4 | |
| 20260508221000 | 51 | 0.0 | 0.0 | 0.00 | 0.00 | 0.00 | 86 | 1019.2 | |
| 20260508220001 | 51 | 0.0 | 0.0 | 0.00 | 0.00 | 0.00 | 86 | 1019.2 | |
| 20260508215001 | 51 | 0.0 | 0.0 | 0.00 | 0.00 | 0.00 | 85 | 1019.2 | |
| 20260508214001 | 51 | 0.0 | 0.0 | 0.00 | 0.00 | 0.00 | 85 | 1019.1 | |
| 20260508213001 | 51 | 0.0 | 0.0 | 0.00 | 0.00 | 0.00 | 84 | 1019.2 | |
| 20260508212001 | 51 | 0.0 | 0.0 | 0.00 | 0.00 | 0.00 | 85 | 1019.1 | |
| 20260508211001 | 51 | 0.0 | 0.0 | 0.00 | 0.00 | 0.00 | 85 | 1019.2 | |
| 20260508210001 | 52 | 0.0 | 0.0 | 0.00 | 0.00 | 0.00 | 85 | 1019.1 | |
| 20260508205001 | 52 | 0.0 | 0.0 | 0.00 | 0.00 | 0.00 | 86 | 1019.0 | |
| 20260508204001 | 52 | 0.0 | 0.0 | 0.00 | 0.00 | 0.00 | 86 | 1018.9 | |
| 20260508203001 | 52 | 0.0 | 0.0 | 0.00 | 0.00 | 0.00 | 86 | 1018.8 | |
| 20260508202001 | 52 | 0.0 | 0.0 | 0.00 | 0.00 | 0.00 | 86 | 1018.9 | |
| 20260508201001 | 52 | 0.0 | 0.0 | 0.00 | 0.00 | 0.00 | 85 | 1018.9 | |
| 20260508200001 | 52 | 0.0 | 0.0 | 0.00 | 0.00 | 0.00 | 85 | 1018.7 | |
| 20260508195001 | 53 | 0.0 | 0.0 | 0.00 | 0.00 | 0.00 | 85 | 1018.6 | |
| 20260508194001 | 53 | 0.0 | 0.0 | 0.00 | 0.00 | 0.00 | 84 | 1018.7 | |
| 20260508193001 | 53 | 0.0 | 0.0 | 0.00 | 0.00 | 0.00 | 84 | 1018.7 | |
| 20260508192001 | 53 | 0.0 | 0.0 | 0.00 | 0.00 | 0.00 | 83 | 1018.5 | |
| 20260508191001 | 53 | 0.0 | 0.0 | 0.00 | 0.00 | 0.00 | 82 | 1018.6 | |
| 20260508185001 | 54 | 0.0 | 0.0 | 0.00 | 0.00 | 0.00 | 81 | 1018.5 | |
| 20260508184001 | 54 | 0.0 | 0.0 | 0.00 | 0.00 | 0.00 | 81 | 1018.3 | |
| 20260508183001 | 54 | 0.0 | 0.0 | 0.00 | 0.00 | 0.00 | 81 | 1018.2 | |
| 20260508182001 | 54 | 0.0 | 0.0 | 0.00 | 0.00 | 0.00 | 81 | 1018.2 | |
| 20260508181001 | 54 | 0.0 | 0.0 | 0.00 | 0.00 | 0.00 | 80 | 1018.0 | |
| 20260508180001 | 54 | 0.0 | 0.0 | 0.00 | 0.00 | 0.00 | 79 | 1017.9 | |
| 20260508175001 | 55 | 0.0 | 0.0 | 0.00 | 0.00 | 0.00 | 78 | 1017.8 | |
| 20260508174001 | 55 | 0.0 | 0.0 | 0.00 | 0.00 | 0.00 | 77 | 1017.6 | |
| 20260508173001 | 55 | 0.0 | 0.0 | 0.00 | 0.00 | 0.00 | 77 | 1017.6 | |
| 20260508172001 | 55 | 0.0 | 0.0 | 0.00 | 0.00 | 0.00 | 78 | 1017.5 | |
| 20260508171001 | 56 | 0.0 | 0.0 | 0.00 | 0.00 | 0.00 | 76 | 1017.6 | |
| 20260508170001 | 56 | 0.0 | 0.0 | 0.00 | 0.00 | 0.00 | 75 | 1017.5 | |
| 20260508165001 | 56 | 0.0 | 0.0 | 0.00 | 0.00 | 0.00 | 74 | 1017.6 | |
| 20260508164001 | 56 | 0.0 | 0.0 | 0.00 | 0.00 | 0.00 | 75 | 1017.5 | |
| 20260508163000 | 56 | 0.0 | 0.0 | 0.00 | 0.00 | 0.00 | 74 | 1017.6 | |
| 20260508162000 | 56 | 0.0 | 0.0 | 0.00 | 0.00 | 0.00 | 77 | 1017.6 | |
| 20260508161000 | 56 | 0.0 | 0.0 | 0.00 | 0.00 | 0.00 | 76 | 1017.6 | |
| 20260508160001 | 56 | 0.0 | 0.0 | 0.00 | 0.00 | 0.00 | 77 | 1017.5 | |
| 20260508155000 | 56 | 0.0 | 0.0 | 0.00 | 0.00 | 0.00 | 76 | 1017.6 | |
| 20260508154000 | 57 | 0.0 | 0.0 | 0.00 | 0.00 | 0.00 | 73 | 1017.7 | |
| 20260508153000 | 57 | 0.0 | 0.0 | 0.00 | 0.00 | 0.00 | 75 | 1017.7 | |
| 20260508152000 | 57 | 0.0 | 0.0 | 0.00 | 0.00 | 0.00 | 76 | 1017.7 | |
| 20260508151000 | 56 | 0.0 | 0.0 | 0.00 | 0.00 | 0.00 | 77 | 1017.7 | |
| 20260508150000 | 56 | 0.0 | 0.0 | 0.00 | 0.00 | 0.00 | 78 | 1017.7 | |
| 20260508144001 | 56 | 0.0 | 0.0 | 0.00 | 0.00 | 0.00 | 77 | 1017.7 | |
| 20260508143001 | 57 | 0.0 | 0.0 | 0.00 | 0.00 | 0.00 | 78 | 1017.6 | |
| 20260508142001 | 57 | 0.0 | 0.0 | 0.00 | 0.00 | 0.00 | 77 | 1017.6 | |
| 20260508141001 | 56 | 0.0 | 0.0 | 0.00 | 0.00 | 0.00 | 80 | 1017.6 | |
| 20260508140001 | 56 | 0.0 | 0.0 | 0.00 | 0.00 | 0.00 | 79 | 1017.7 | |
| 20260508135001 | 56 | 0.0 | 0.0 | 0.00 | 0.00 | 0.00 | 78 | 1017.5 | |
| 20260508134001 | 56 | 0.0 | 0.0 | 0.00 | 0.00 | 0.00 | 79 | 1017.5 | |
| 20260508133001 | 55 | 0.0 | 0.0 | 0.00 | 0.00 | 0.00 | 81 | 1017.6 | |
| 20260508132001 | 56 | 0.0 | 0.0 | 0.00 | 0.00 | 0.00 | 82 | 1017.7 | |
| 20260508131001 | 56 | 0.0 | 0.0 | 0.00 | 0.00 | 0.00 | 80 | 1017.7 | |
| 20260508130001 | 56 | 0.0 | 0.0 | 0.00 | 0.00 | 0.00 | 79 | 1017.8 | |
| 20260508125001 | 57 | 0.0 | 0.0 | 0.00 | 0.00 | 0.00 | 78 | 1017.9 | |
| 20260508124001 | 57 | 0.0 | 0.0 | 0.00 | 0.00 | 0.00 | 78 | 1017.8 | |
| 20260508123001 | 56 | 0.0 | 0.0 | 0.00 | 0.00 | 0.00 | 80 | 1017.8 | |
| 20260508122001 | 57 | 0.0 | 0.0 | 0.00 | 0.00 | 0.00 | 83 | 1017.8 | |
| 20260508121001 | 57 | 0.0 | 0.0 | 0.00 | 0.00 | 0.00 | 83 | 1017.8 | |
| 20260508120001 | 56 | 0.0 | 0.0 | 0.00 | 0.00 | 0.00 | 85 | 1017.8 |